sat.trackr.live / text

‹ back to catalog

STARLINK-31889

NORAD 59847 · 2024-097N

PAYLOAD ACTIVE UNKNOWN

§ Identity

Operator
Country
US
Launch date
2024-05-23
Launch site
AFETR
Launch vehicle
Mass (kg)
RCS (m²)

Purposes: comms

External: N2YO · Heavens-Above · Gunter

§ Orbital elements

Epoch: 2026-09-21T15:56:33.607968Z

Period
94.27 min
Inclination
43.0021°
Eccentricity
0.0000820
Mean motion
15.27574542 rev/d
Perigee alt
482.5 km
Apogee alt
483.6 km
Semi-major
6,861.2 km
B*
-1.0389e-6
RAAN
248.0226°
Arg perigee
276.3081°
Mean anomaly
83.7677°
Rev number
13,188

§ Raw data

STARLINK-318891 59847U 24097N   26264.66427787 -.00000290  00000+0 -10389-5 0  99902 59847  43.0021 248.0226 0000820 276.3081  83.7677 15.27574542131887

JSON: /api/v1/satellites/59847 · /tle

For live sub-satellite position, see the globe view (requires WebGL).

§ Visibility from observer

Set your observer location to see the next 7 days of passes ≥ 10°. The values pass through the URL so the page stays shareable.

No JS? Fill the form by hand. The geolocation button needs JavaScript.